Flag for U.S.A. Weather past 2 weeks in El Monte, California, U.S.A.

Now
52 °F

Clear.


Feels Like: 52 °F
Forecast: 46 / 62 °F
Wind: No wind

Location: Fullerton Municipal Airport

Current Time: Dec 18, 2014 at 12:42:12 AM

Latest Report: Dec 17, 2014 at 11:53 PM


Visibility: 10 mi

Pressure: 30.10 "Hg

Humidity: 77%

Dew point: 45 °F

Location of El MonteLocation

Historic Weather in El Monte — Graph

°F

El Monte temperature yesterday

Maximum temperature yesterday: 66 °F (at 12:53 PM)
Minimum temperature yesterday: 53 °F (at 4:53 AM)
Average temperature yesterday: 59 °F

Past Weeks' High & Low Weather Summary

 TemperatureHumidityPressure
High80 °F (Dec 8, 1:53 PM)94% (Dec 3, 7:53 PM)30.20 "Hg (Dec 3, 7:53 PM)
Low47 °F (Dec 14, 5:53 AM)26% (Dec 8, 1:53 PM)29.82 "Hg (Dec 12, 3:53 AM)
Average61 °F73%30.03 "Hg
* Reported Dec 2 10:53 PM — Dec 17 10:53 PM, El Monte, Weather by CustomWeather, © 2014

Note: Actual official high and low records may vary slightly from our data, if they occured in-between our weather recording intervals... More about our weather records

Advertising

El Monte weather history for previous 24 hours

 ConditionsComfort  
Time TempWeatherWind HumidityBarometerVisibility
10:53 PM
Dec 17
54 °FClear.No wind74%30.11 "Hg10 mi
9:53 PM55 °FClear.No wind72%30.10 "Hg10 mi
8:53 PM56 °FPassing clouds.No wind72%30.09 "Hg10 mi
7:53 PM58 °FOvercast.3 mph67%30.08 "Hg10 mi
6:53 PM60 °FOvercast.No wind62%30.06 "Hg10 mi
5:53 PM60 °FOvercast.No wind60%30.06 "Hg10 mi
4:53 PM61 °FClear.5 mph56%30.06 "Hg10 mi
3:53 PM62 °FPassing clouds.7 mph48%30.05 "Hg10 mi
2:53 PM64 °FScattered clouds.9 mph49%30.04 "Hg10 mi
1:53 PM65 °FBroken clouds.6 mph45%30.03 "Hg10 mi
12:53 PM66 °FBroken clouds.5 mph49%30.03 "Hg10 mi
11:53 AM64 °FScattered clouds.3 mph56%30.03 "Hg10 mi
10:53 AM62 °FScattered clouds.5 mph62%30.05 "Hg10 mi
9:53 AM60 °FBroken clouds.8 mph67%30.05 "Hg10 mi
8:53 AM60 °FPartly sunny.5 mph67%30.03 "Hg10 mi
7:53 AM56 °FPartly sunny.7 mph77%30.01 "Hg10 mi
7:01 AM53 °FCloudy.6 mph83%29.99 "Hg10 mi
5:53 AM53 °FMostly cloudy.6 mph83%29.97 "Hg10 mi
4:53 AM53 °FPassing clouds.No wind77%29.96 "Hg10 mi
4:03 AM56 °FRain. Fog.14 mph90%29.98 "Hg2 mi
3:55 AM56 °FRain. Fog.3 mph90%29.97 "Hg2 mi
2:53 AM56 °FMostly cloudy.3 mph90%29.96 "Hg10 mi
1:53 AM57 °FOvercast.No wind83%29.96 "Hg10 mi
12:53 AM57 °FLight rain. Partly cloudy.5 mph81%29.96 "Hg10 mi
Weather by CustomWeather, © 2014

See weather overviewHow to use our weather pages